Regional Weather Roundup
Issued by NWS Lake Charles, LA

Home | Current Version | Previous Version | Text Only | Print | Product List | Glossary On
Versions: 1 2 3 4 5 6 7 8 9 10 11 12 13 14 15 16 17 18 19 20 21 22 23 24 25 26 27 28 29 30 31 32 33 34 35 36 37 38 39 40 41 42 43 44 45 46 47 48 49 50
000
ASUS44 KLCH 210310
RWRLCH
REGIONAL WEATHER ROUNDUP
NATIONAL WEATHER SERVICE LAKE CHARLES LA
1000 PM CDT FRI OCT 20 2017

Note: "fair" indicates few or no clouds below 12,000 feet with no
significant weather and/or obstructions to visibility.


ACROSS SOUTHEAST TEXAS

CITY           SKY/WX    TMP DP  RH WIND       PRES   REMARKS
BEAUMONT       MOCLDY    72  69  90 E10       29.97S
BEAUMONT CITY  MOCLDY    73  68  86 E5        29.99R
ORANGE         PTCLDY    70  70  98 E7        30.00R
JASPER         CLEAR     70  66  89 E3        30.02R
$$

ACROSS CENTRAL LOUISIANA

CITY           SKY/WX    TMP DP  RH WIND       PRES   REMARKS
LEESVILLE      PTCLDY    69  65  86 E6        30.00F
FULLERTON      FAIR      68  66  93 CALM      30.00S
ALEXANDRIA INT MOCLDY    69  65  86 CALM      30.02R
ESLER FIELD    MOCLDY    66  65  96 CALM      30.05R
DERIDDER       FAIR      68  67  95 CALM      30.02F
OAKDALE        CLOUDY    67  66  96 E3        30.02S
OPELOUSAS        N/A     72  69  89 E5        30.04R
$$

ACROSS SOUTHWEST AND SOUTH CENTRAL LOUISIANA

CITY           SKY/WX    TMP DP  RH WIND       PRES   REMARKS
SULPHUR        CLOUDY    71  69  93 E7        30.01R
LAKE CHARLES   CLOUDY    69  68  96 SE3       30.00S
CHENNAULT INT  PTCLDY    68  66  94 E6        30.00F
CAMERON PHI    MOCLDY    72  70  94 E7        29.98F
DEQUINCY       FAIR      67  66  94 E3        30.00S
JENNINGS       MOCLDY    70  68  95 E6        30.01F
LAFAYETTE      CLOUDY    74  71  91 VRB3      30.02S
NEW IBERIA     CLOUDY    74  68  81 E14       30.02S
ABBEVILLE      FAIR      73  73 100 E7        30.02R
PATTERSON      PTCLDY    74  71  91 E8        30.05R
SALT POINT       N/A     74  71  91 VRB6      30.01S
$$

SELECTED SITES ACROSS THE REGION

CITY           SKY/WX    TMP DP  RH WIND       PRES   REMARKS
HOUSTON BUSH   CLOUDY    74  72  93 E7        29.97R
HOUSTON HOBBY  MOCLDY    77  72  84 SE7       29.96R
GALVESTON      PTCLDY    80  73  79 SE18      29.96R
COLLEGE STAT   PTCLDY    74  70  87 SE10      29.97R
CONROE         CLOUDY    72  72 100 SE6       29.99R
HUNTSVILLE     CLOUDY    73  68  84 VRB3      29.99R
LUFKIN         CLEAR     67  65  93 CALM      29.99S
SHREVEPORT     PTCLDY    67  64  90 SE5       30.01S
MONROE         MOCLDY    69  63  81 E3        30.06S
NATCHEZ MS     CLOUDY    71  66  84 E6        30.07S
BATON ROUGE    CLOUDY    73  68  84 E10       30.06S
N.O. INTL ARPT PTCLDY    75  73  93 E9        30.07S
SLIDELL        CLOUDY    70  67  90 CALM      30.09R
$$

MARINE REPORTS

STATION/POSITION TIME  SKY/WX   TEMP    WIND        PRES    VSBY
                                AIR SEA DIR/SP/G
                 (UTC)          (F)     (DEG/KT/KT) (MB)    (MI)
BUOY 30 S HIGH I 0150            79 79  140/ 21/ 25 1013.7
WVE H/P(F/S)=  5/ 7

SEA RIM ST PARK  0300            77     130/ 11/ 15 1015.6R
PORT ARTHUR      0248            72 76              1015.3R
SABINE PASS N    0248                               1016.2R
TEXAS POINT      NOT AVBL
CALCASIEU PASS   0248            72 76              1014.2S
LK CHARLES BEACH 0248            69 78              1015.2F
MARSH ISLAND     0200            76                   N/A
FRESH WATER LOCK 0248            76 74              1015.3F
AMERADA PASS     0248            74 77              1016.9S
$$



USA.gov is the U.S. government's official web portal to all federal, state and local government web resources and services.